#timestamp,LO_Frequency,Hit,StdDev 
1621375215.9,286046997.1,N
1621375235.7,286046995.4,N
1621375255.5,286046996.2,N
1621375275.4,286046996.0,N
1621375295.2,286046997.1,N
1621375315.0,286047000.4,N
1621375316.0,286047000.4,N
1621375335.8,286047000.8,N
1621375355.6,286046999.6,N
1621375375.5,286046997.4,N
1621375395.3,286046996.7,N
1621375415.1,286046996.6,N
1621375435.9,286046997.1,N
1621375455.7,286046999.5,N
1621375475.6,286046999.4,N
1621375495.4,286047000.7,N
1621375515.2,286046999.8,N
1621375535.1,286047000.1,N
1621375536.0,286047000.1,N
1621375555.8,286047000.3,N
1621375575.7,286047001.2,N
1621375595.5,286046998.4,N
1621375615.3,286046998.5,N
1621375635.2,286047000.8,N
1621375655.9,286047000.4,N
1621375675.7,286046998.5,N
1621375695.6,286046999.2,N
1621375715.4,286047000.0,N
1621375735.3,286046999.9,N
1621375755.1,286047002.5,N
1621375756.0,286047002.5,N
1621375775.8,286047001.8,N
1621375795.7,286046998.8,N
1621375815.5,286046998.0,N
1621375835.3,286046995.1,Y
1621375855.2,286046998.4,P
1621375875.0,286047000.8,N
1621375875.9,286047000.8,N
1621375895.8,286047001.2,N
1621375915.6,286046998.5,N
1621375935.4,286047002.3,N
1621375955.3,286047002.5,N
1621375975.1,286047004.4,N
1621375995.8,286047001.6,N
1621376015.7,286047002.4,N
1621376035.5,286047002.8,N
1621376055.4,286047001.4,N
1621376075.2,286047004.1,N
1621376095.0,286047002.1,N
1621376095.9,286047002.1,N
1621376115.8,286047000.2,N
1621376135.6,286047001.1,N
1621376155.5,286047000.8,N
1621376175.3,286047000.1,N
1621376195.1,286047001.0,N
1621376215.9,286047000.9,N
1621376235.7,286047000.2,N
1621376255.5,286047003.4,N
1621376275.4,286047001.3,N
1621376295.2,286047000.2,N
1621376315.1,286047002.5,N
1621376316.0,286047002.5,N
1621376335.8,286047001.8,N
1621376355.6,286047003.6,N
1621376375.5,286047004.3,N
1621376395.3,286047003.7,N
1621376415.1,286047003.3,N
1621376435.9,286047001.3,N
1621376455.7,286047002.1,N
1621376475.6,286047001.9,N
1621376495.4,286047000.3,N
1621376515.2,286047000.5,N
1621376535.1,286047000.1,N
1621376536.0,286047000.1,N
1621376555.8,286047003.2,N
1621376575.6,286047004.0,Y
1621376595.5,286047001.6,P
1621376615.3,286047001.7,P
1621376635.2,286047003.7,P
1621376655.9,286047003.8,Y
1621376675.7,286047000.8,P
1621376695.6,286047001.1,N
1621376715.4,286046996.5,P
1621376735.3,286046999.5,N
1621376755.1,286046998.1,N
1621376756.0,286046998.1,N
1621376775.8,286047000.7,N
1621376795.7,286047000.8,N
1621376815.5,286046999.7,N
1621376835.4,286047000.2,N
1621376855.3,286047000.6,N
1621376875.1,286047002.4,N
1621376895.9,286047001.4,N
1621376915.7,286047002.4,N
1621376935.5,286047002.5,N
1621376955.4,286047001.5,N
1621376975.2,286047002.5,N
1621376995.1,286047001.3,N
1621376996.0,286047001.3,N
1621377015.8,286047002.6,N
1621377035.6,286047001.6,N
1621377055.5,286046999.8,N
1621377075.3,286046999.9,N
1621377095.1,286047001.5,N
1621377115.9,286047000.6,N
1621377135.7,286047000.0,N
1621377155.6,286047002.3,N
1621377175.4,286047001.9,N
1621377195.2,286047000.9,N
1621377215.1,286046999.8,N
1621377216.0,286046999.8,N
1621377235.8,286046998.3,N
1621377255.7,286046999.6,N
1621377275.5,286046996.6,N
1621377295.3,286046997.0,N
1621377315.2,286046996.8,N
1621377335.0,286046997.1,N
1621377335.9,286046997.1,N
1621377355.7,286046998.2,N
1621377375.6,286047002.8,N
1621377395.4,286047002.6,N
1621377415.3,286047002.8,N
1621377435.1,286047001.9,N
1621377455.8,286047001.3,N
1621377475.7,286047001.6,N
1621377495.5,286047001.0,N
1621377515.4,286047001.2,N
1621377535.2,286047000.4,N
1621377555.0,286046998.2,N
1621377555.9,286046998.2,N
1621377575.8,286047000.2,N
1621377595.6,286047000.2,N
1621377615.4,286047002.5,N
1621377635.3,286047001.5,N
1621377655.1,286047000.0,N
1621377675.9,286047002.0,N
1621377695.7,286047000.1,N
1621377715.5,286047000.1,N
1621377735.4,286047001.9,N
1621377755.2,286047001.7,N
1621377775.0,286047001.5,N
1621377775.9,286047001.5,N
1621377795.8,286047002.7,N
1621377815.6,286047002.1,N
1621377835.5,286047002.5,N
1621377855.3,286047002.2,N
1621377875.1,286046999.6,N
1621377895.9,286046999.3,N
1621377915.7,286047002.8,N
1621377935.5,286047002.2,N
1621377955.4,286046999.7,N
1621377975.2,286046998.1,N
1621377995.1,286047001.2,N
1621377996.0,286047001.2,N
1621378015.8,286046998.8,N
1621378035.6,286046998.1,N
1621378055.5,286047000.3,N
1621378075.3,286047001.1,N
1621378095.1,286046999.9,N
1621378115.9,286047000.3,N
1621378135.7,286047000.1,N
1621378155.6,286047000.7,N
1621378175.4,286046998.7,N
1621378195.2,286047000.2,N
1621378215.1,286047000.4,N
1621378216.0,286047000.4,N
1621378235.8,286047000.4,N
1621378255.6,286046999.5,N
1621378275.5,286047000.1,N
1621378295.3,286046999.8,N
1621378315.2,286047002.7,N
1621378335.9,286047001.3,N
1621378355.7,286046999.7,N
1621378375.6,286047002.4,N
1621378395.4,286047000.2,N
1621378415.3,286046998.1,N
1621378435.1,286047000.6,N
1621378436.0,286047000.6,N
1621378455.8,286047002.6,N
1621378475.7,286047001.6,N
1621378495.5,286047001.0,N
1621378515.4,286047001.2,N
1621378535.2,286046999.0,N
1621378555.0,286046996.9,N
1621378555.9,286046996.9,N
1621378575.8,286046998.2,N
1621378595.6,286047000.9,N
1621378615.4,286046999.7,N
1621378635.3,286047001.2,N
1621378655.1,286046997.2,N
1621378675.9,286046999.6,N
1621378695.7,286046997.0,N
1621378715.5,286046995.8,N
1621378735.4,286046997.3,N
1621378755.2,286046999.3,N
1621378775.0,286046996.6,N
1621378776.0,286046996.6,N
1621378795.8,286046997.7,N
